Regional Weather Roundup
Issued by NWS

Home | Current Version | Previous Version | Text Only | Print | Product List | Glossary On
Versions: 1 2 3 4 5 6 7 8 9 10 11 12 13 14 15 16 17 18 19 20 21 22 23 24 25 26 27 28 29 30 31 32 33 34 35 36 37 38 39 40 41 42 43 44 45 46 47 48 49 50
000
ASUS46 KPQR 012010
RWROR

OREGON REGIONAL WEATHER ROUNDUP
NATIONAL WEATHER SERVICE PORTLAND OR
100 PM PDT SAT AUG 01 2015

NOTE: "FAIR" INDICATES FEW OR NO CLOUDS BELOW 12,000 FEET WITH
NO SIGNIFICANT WEATHER AND/OR OBSTRUCTIONS TO VISIBILITY.

ORZ001>013-012100-
NORTHWEST OREGON


CITY           SKY/WX    TMP DP  RH WIND       PRES   REMARKS
ASTORIA        SUNNY     78  60  53 W10       29.97S
NEWPORT        MOSUNNY   59  52  77 N21G28    29.99F
PORTLAND       MOSUNNY   85  48  27 W7        29.92F
VANCOUVER WA   SUNNY     86  47  25 NW10      29.92F
SCAPPOOSE      SUNNY     92  45  19 N9        29.91F
HILLSBORO      SUNNY     90  45  21 W6        29.92F
AURORA         SUNNY     89  46  22 N6        29.93F
MCMINNVILLE    SUNNY     92  43  18 CALM      29.92F
SALEM          SUNNY     89  45  21 N9        29.91F
CORVALLIS      SUNNY     91  39  16 E3        29.94F
EUGENE         MOSUNNY   90  38  16 N12       29.92F
$$

ORZ021-028-012100-
SOUTHWEST OREGON


CITY           SKY/WX    TMP DP  RH WIND       PRES   REMARKS
NORTH BEND     PTSUNNY   61  54  77 W13       30.00F
BROOKINGS      CLOUDY    63  62  96 VRB5      30.03S
ROSEBURG       MOSUNNY   87  48  25 NW3       29.91F
SEXTON SUMMIT  HAZE      86  46  24 CALM      30.08F VSB 1
MEDFORD        CLOUDY    93  46  19 W3        29.90F HAZE
$$

ORZ014>016-041-012100-
COLUMBIA GORGE


CITY           SKY/WX    TMP DP  RH WIND       PRES   REMARKS
TROUTDALE      SUNNY     86  50  28 VRB6      29.90F
THE DALLES     SUNNY     99  39  12 NW15      29.83F HX  94
$$

ORZ029>031-041-044-049-050-061>064-502-503-505>511-012100-
EASTERN OREGON


CITY           SKY/WX    TMP DP  RH WIND       PRES   REMARKS
REDMOND        MOSUNNY   94  33  11 MISG      30.03F
BEND           MOSUNNY   91  32  12 SW3       30.06F
PRINEVILLE     MOSUNNY   95  32  11 NE7       30.03F HX  90
KLAMATH FALLS  SUNNY     91  38  15 VRB3      30.09F
LAKEVIEW       MOSUNNY   91  37  15 NE3       30.13F
HERMISTON      SUNNY     97  39  13 NW6       29.87F HX  92
PENDLETON      SUNNY     97  30   9 NW5       29.92F HX  91
JOHN DAY       SUNNY     96  32  10 NW6       30.07F HX  90
MEACHAM        SUNNY     92  25   9 MISG      30.08F
LA GRANDE      SUNNY     97  37  12 NE6       29.98F HX  92
BAKER CITY     SUNNY     93  41  16 W5        30.03F
BURNS          SUNNY     93  28  10 CALM      30.09F
ROME             N/A    102  20   5 S13G20    30.05F HX  94
ONTARIO        SUNNY     95  51  22 SE5       29.97F HX  92
$$


USA.gov is the U.S. government's official web portal to all federal, state and local government web resources and services.